SCP
0 0 1 1 1 1 1 1 1 1 1 1 1 1 1 1 1 1 1 0 0 0 0 0 0 1 1 1 1 1 0 0 1 0 0 0 0 0 0 0 0 0 0
0 0 0 0 1 1 1 1 1 1 1 1 1 1 1 0 0 0 0 0 0 0 0 0 0 1 1 1 1 1 0 0 1 1 0 0 0 0 0 0 0 0 0
0 0 0 0 0 0 0 0 0 1 1 1 0 0 0 0 0 0 0 0 0 0 0 0 0 0 1 1 1 0 0 0 1 1 0 0 0 0 0 0 0 0 0
0 0 0 0 0 0 0 0 0 0 0 0 0 0 0 0 0 0 0 0 0 0 0 0 0 0 0 0 0 0 0 0 1 1 1 0 0 0 0 0 0 0 0
0 0 0 0 0 0 0 0 0 1 0 0 0 0 0 0 0 0 0 0 0 0 0 0 0 0 0 0 0 0 0 0 0 1 1 1 0 0 0 0 0 0 0
0 0 0 0 0 0 0 0 0 0 0 0 0 0 0 0 0 0 0 0 0 0 0 0 0 0 0 0 0 0 0 0 0 0 0 0 0 0 0 0 0 0 0
0 0 0 0 0 0 0 0 0 0 0 0 0 0 0 0 0 0 0 0 0 0 0 0 0 0 0 0 0 0 0 0 0 0 0 0 0 0 0 0 0 0 0
0 0 0 0 0 0 0 0 0 0 0 0 0 0 0 0 0 0 0 0 0 0 0 0 0 0 0 0 0 0 0 0 0 0 0 0 0 0 0 0 0 0 0
0 0 0 0 0 0 0 0 0 0 0 0 0 0 0 0 0 0 0 0 0 0 0 0 0 0 0 0 0 0 0 0 0 0 0 0 0 0 0 0 0 0 0
0 0 0 0 0 0 0 0 0 0 0 0 0 0 0 0 0 0 0 0 0 0 0 0 0 0 0 0 0 0 0 0 0 0 0 0 0 0 0 0 0 0 0
0 0 0 0 0 0 0 0 0 0 0 0 0 0 0 0 0 0 0 0 0 0 0 0 0 0 0 0 0 0 0 0 0 0 0 0 0 0 0 0 0 0 0
0 0 0 0 0 0 0 0 0 0 0 0 0 0 0 0 0 0 0 0 0 0 0 0 0 0 0 0 0 0 0 0 0 0 0 0 0 0 0 0 0 0 0
0 0 0 0 0 0 0 0 0 0 0 0 0 0 0 0 0 0 0 0 0 0 0 0 0 0 0 0 0 0 0 0 0 0 0 0 0 0 0 0 0 0 0
0 0 0 0 0 0 0 0 0 0 0 0 0 0 0 0 0 0 0 0 0 0 0 0 0 0 0 0 0 0 0 0 0 0 0 0 0 0 0 0 0 0 0
0 0 0 0 0 0 0 0 0 0 0 0 0 0 0 0 0 0 0 0 0 0 0 0 0 0 0 0 0 0 0 0 0 0 0 0 0 0 0 0 0 0 0
0 0 0 0 0 0 0 0 0 0 0 0 0 0 0 0 0 0 0 0 0 0 0 0 0 0 0 0 0 0 0 0 0 0 0 0 0 0 0 0 0 0 0
0 0 0 0 0 0 0 0 0 0 0 0 0 0 0 0 0 0 0 0 0 0 0 0 0 0 0 0 0 0 0 0 0 0 0 0 0 0 0 0 0 0 0
0 0 0 0 0 0 0 0 0 0 0 0 0 0 0 0 0 0 0 0 0 0 0 0 0 0 0 0 0 0 0 0 0 0 0 0 0 0 0 0 0 0 0
0 0 0 0 0 0 0 0 0 0 0 0 0 0 0 0 0 0 0 0 0 0 0 0 0 0 0 0 0 0 0 0 0 0 0 0 0 0 0 0 0 0 0
0 0 0 0 0 0 0 0 0 0 0 0 0 0 0 0 0 0 0 0 0 0 0 0 0 0 0 0 0 0 0 0 0 0 0 0 0 0 0 0 0 0 0
0 0 0 0 0 0 0 0 0 0 0 0 0 0 0 0 0 0 0 0 0 0 0 0 0 0 0 0 0 0 0 0 0 0 0 0 0 0 0 0 0 0 0
0 0 0 0 0 0 0 0 0 0 0 0 0 0 0 0 0 0 0 0 0 0 0 0 0 0 0 0 0 0 0 0 0 0 0 0 0 0 0 0 0 0 0
0 0 0 0 0 0 0 0 0 0 0 0 0 0 0 0 0 0 0 0 0 0 0 0 0 0 0 0 0 0 0 0 0 0 0 0 0 0 0 0 0 0 0
0 0 0 0 0 0 0 0 0 0 0 0 0 0 0 0 0 0 0 0 0 0 0 0 0 0 0 0 0 0 0 0 0 0 0 0 0 0 0 0 0 0 0
0 0 0 0 0 0 0 0 0 0 0 0 0 0 0 0 0 0 0 0 0 0 0 0 0 0 0 0 0 0 0 0 0 0 0 0 0 0 0 0 0 0 0
0 0 0 0 0 0 0 0 0 0 0 0 0 0 0 0 0 0 0 0 0 0 0 0 0 0 0 0 0 0 0 0 0 0 0 0 0 0 0 0 0 0 0
Wind_Speed
2 3 3 3 3 3 4 4 4 3 3 2 2 2 2 1 1 1 0 1 2 2 3 3 2 3 2 3 3 4 4 4 3 4 4 4 5 4 3 3 3 3 4
2 2 2 3 3 4 4 4 4 4 3 2 2 1 1 1 1 0 1 1 2 2 2 3 3 3 3 3 3 3 4 3 2 4 4 3 4 3 4 4 4 4 4
3 3 3 3 4 4 4 3 3 4 4 3 2 2 1 1 1 1 1 1 2 2 2 3 3 3 3 2 3 3 4 4 3 2 3 4 3 2 3 4 3 3 4
3 3 3 3 4 4 4 4 4 4 4 3 2 2 2 1 1 1 0 1 2 2 2 2 2 3 3 2 3 3 4 5 4 2 3 4 4 4 3 3 3 4 4
2 2 3 3 3 3 4 4 4 3 3 3 3 3 2 1 1 1 1 1 1 1 2 2 2 2 2 2 3 3 4 4 4 3 3 4 3 5 4 4 3 3 4
1 1 2 3 3 3 4 4 4 3 3 3 2 2 2 1 1 1 1 1 1 1 1 1 2 2 2 2 3 3 4 4 4 5 4 4 3 4 4 5 5 4 4
1 2 2 3 3 3 3 3 4 3 3 3 3 2 2 2 2 1 1 1 0 0 0 1 1 2 2 2 3 3 3 4 4 5 4 4 4 5 5 6 6 6 4
2 2 2 2 3 3 3 3 3 3 2 2 2 1 2 2 1 1 1 1 1 0 1 1 2 2 2 2 2 3 3 3 4 5 5 5 4 4 5 5 6 6 5
2 2 2 3 2 2 2 2 2 2 2 1 1 1 1 1 1 2 2 1 1 1 1 2 2 2 2 3 3 2 3 4 5 4 4 5 4 4 4 5 5 6 7
1 2 2 2 3 2 2 2 2 2 1 2 2 1 2 2 2 2 1 1 2 2 2 2 2 2 2 3 3 3 2 4 3 3 4 5 4 4 4 4 5 5 7
2 2 2 2 2 2 3 2 2 2 2 2 2 1 2 2 2 2 2 2 1 2 2 2 2 2 3 3 3 4 3 4 4 5 4 5 5 5 4 4 4 4 5
2 2 2 2 2 2 2 2 2 3 2 2 2 2 2 3 2 2 1 1 1 2 2 2 2 3 2 3 3 4 4 4 4 4 4 5 4 5 5 4 5 5 5
2 2 2 2 2 2 2 2 2 2 2 2 2 2 2 2 2 2 2 2 2 2 2 2 2 2 2 3 3 4 4 4 4 4 4 5 5 5 4 5 5 5 5
3 2 2 2 1 1 1 2 2 3 3 2 2 2 2 2 2 2 2 2 2 2 2 2 2 2 3 3 3 3 3 4 3 3 4 4 5 5 5 5 5 5 6
3 3 2 1 1 1 1 1 1 2 2 2 2 2 2 2 2 2 2 2 2 2 1 2 2 2 2 2 3 3 3 3 3 3 4 4 4 4 5 5 5 6 6
2 2 2 1 1 1 1 1 1 2 2 2 2 1 2 2 2 2 2 1 1 1 1 1 2 2 2 3 3 5 4 4 3 3 4 4 3 2 4 4 5 6 7
1 1 1 1 1 1 1 2 2 2 2 2 2 1 1 1 2 2 2 1 1 1 1 1 2 2 2 2 2 3 4 3 3 3 4 4 3 3 4 3 5 6 6
0 1 1 1 1 1 2 2 3 3 2 2 1 1 2 2 2 2 1 1 1 1 1 1 2 2 1 1 2 4 4 3 2 3 4 4 4 4 5 7 6 6 5
1 1 2 2 1 1 1 2 2 2 2 2 1 1 2 2 2 1 1 1 1 2 2 1 2 2 1 1 1 5 3 2 3 3 3 4 4 4 5 6 6 7 6
1 1 1 1 1 1 1 2 2 2 2 2 2 2 2 2 2 2 2 1 2 2 2 1 2 2 1 1 1 4 4 3 3 2 2 1 3 4 5 6 7 7 7
1 1 2 1 1 1 2 2 1 1 1 1 1 1 1 2 2 1 1 2 2 1 2 2 2 1 0 1 1 2 4 4 4 4 3 2 3 3 5 7 6 7 9
1 2 2 2 1 1 2 2 2 2 1 1 1 1 1 1 1 2 2 2 2 2 2 2 3 2 2 1 2 3 4 5 5 5 4 3 2 5 7 6 5 7 9
2 2 2 2 2 2 2 2 2 2 2 1 1 1 1 1 2 2 3 3 3 3 2 2 3 2 1 2 5 5 5 5 5 4 4 5 6 8 7 6 7 7 5
2 2 3 3 2 2 3 3 2 2 2 2 2 2 2 2 2 3 3 3 3 3 2 2 3 2 2 2 2 3 4 6 6 5 5 8 10 9 6 5 4 4 4
2 2 3 3 3 2 3 2 2 3 3 3 2 3 3 3 3 3 2 3 2 3 4 3 3 3 3 2 4 4 4 4 4 6 5 4 3 4 3 3 3 4 4
2 3 3 4 3 3 2 2 2 3 3 3 3 3 3 3 3 3 2 1 2 1 2 3 4 3 2 2 3 3 4 5 5 6 5 4 4 4 4 4 4 4 4
Wind_Direction
162 152 165 179 181 177 170 169 167 162 174 168 182 180 185 191 194 180 121 261 273 255 263 278 255 265 261 266 271 266 249 250 260 262 254 240 228 236 240 247 260 251 254
177 163 174 183 191 189 184 178 173 166 178 172 184 199 204 203 170 183 168 249 263 267 256 280 273 265 259 260 270 273 270 261 253 274 269 251 217 216 228 232 236 255 264
204 203 198 186 189 186 187 177 173 174 179 177 175 168 172 201 174 213 206 240 255 251 273 275 276 279 272 264 267 269 264 270 250 263 282 278 272 274 217 228 240 250 260
215 210 198 187 193 187 180 175 172 177 176 181 180 192 209 219 237 239 200 226 243 263 269 275 273 276 282 280 266 266 266 267 268 241 251 275 306 281 274 244 236 247 252
210 215 192 181 181 179 173 167 168 171 176 190 197 215 223 240 242 223 181 246 232 267 275 265 271 270 277 287 284 273 271 270 277 276 264 257 254 262 273 279 278 260 255
169 190 168 158 159 161 162 161 164 169 181 196 203 215 218 227 223 236 225 237 223 252 270 272 287 283 283 263 263 269 265 279 284 283 277 272 269 268 270 275 276 279 273
143 148 157 154 151 155 159 165 166 175 189 193 200 210 216 221 219 234 221 266 258 245 306 298 294 297 290 279 276 271 284 278 273 272 275 275 270 278 277 278 284 284 279
129 138 150 156 154 151 163 166 171 180 183 189 196 208 231 240 224 224 250 246 270 293 338 296 280 281 286 283 279 277 272 270 269 271 277 275 273 278 278 279 287 289 285
121 127 138 136 129 134 142 156 169 170 167 179 191 204 228 252 235 206 223 222 245 245 258 273 267 272 277 278 277 285 288 284 277 277 271 273 278 273 273 275 278 281 289
126 128 118 120 118 125 127 128 142 153 172 194 210 211 211 223 222 224 226 250 263 265 263 272 267 266 269 269 274 278 291 282 280 280 283 280 285 285 277 274 274 275 282
159 144 135 129 132 138 142 144 148 166 181 194 197 213 213 214 219 221 227 231 248 247 250 261 280 271 271 277 277 283 278 272 272 272 272 277 286 287 284 280 278 277 278
144 130 117 127 137 148 155 156 165 171 179 186 189 187 202 209 212 214 227 230 236 239 239 249 264 268 270 272 273 278 282 278 281 288 289 288 286 282 281 285 282 280 276
125 128 133 138 150 158 174 173 173 174 189 181 178 186 206 203 206 219 234 236 236 247 255 265 278 287 281 275 281 286 290 294 294 293 292 290 286 283 290 285 287 287 286
135 139 143 150 160 168 178 176 173 183 194 192 194 201 207 208 223 233 237 243 243 243 252 268 279 290 296 297 301 299 305 301 298 294 289 294 295 288 289 283 284 291 292
144 144 133 131 182 179 159 167 185 188 197 203 206 202 202 209 215 229 241 242 240 236 238 269 278 285 292 324 321 305 305 303 298 296 297 300 301 308 293 302 309 302 296
138 146 151 173 203 201 181 185 180 179 196 215 224 211 207 208 213 224 228 236 236 245 260 303 306 313 345 38 341 302 302 301 300 308 307 288 263 272 251 262 282 290 291
154 175 191 216 228 225 225 210 197 190 199 215 217 215 220 216 220 222 211 217 228 238 271 307 319 335 29 43 349 316 294 294 314 313 306 308 340 316 317 293 254 255 247
245 213 221 233 237 220 220 218 204 198 210 220 225 238 231 232 232 221 233 239 235 240 255 285 303 313 4 61 330 304 279 295 306 304 304 305 320 347 337 317 313 310 304
262 232 229 229 219 204 202 219 212 207 218 219 229 250 249 233 233 232 232 232 230 249 256 268 287 295 323 98 304 293 287 295 295 297 312 315 326 19 334 306 306 307 302
223 223 216 205 204 193 190 215 205 218 237 240 242 247 251 240 239 239 242 231 222 237 259 270 285 291 307 107 258 289 289 302 296 288 282 60 359 1 327 309 310 307 312
222 212 216 211 213 195 200 218 214 236 256 259 248 246 249 233 228 227 222 231 232 238 261 273 268 259 308 144 164 288 299 311 307 313 317 20 66 332 305 295 301 309 304
235 222 227 231 208 198 213 221 219 246 258 256 253 245 240 234 190 198 215 221 230 227 234 245 252 233 189 173 187 228 265 300 302 308 320 354 357 301 285 286 301 294 286
254 240 235 237 220 213 224 232 229 239 239 238 238 241 222 215 220 219 216 222 225 241 244 246 257 260 239 181 195 215 235 250 271 297 315 293 275 275 266 245 256 270 282
257 242 242 241 239 228 229 234 227 218 225 230 228 220 216 224 219 235 234 243 254 257 261 263 272 279 269 270 249 231 226 226 241 267 261 239 242 249 263 265 256 271 298
265 247 246 253 254 239 234 232 216 209 224 233 235 230 224 227 231 233 269 265 277 304 287 283 279 284 288 350 359 320 312 318 330 311 284 285 292 290 296 296 295 293 291
262 256 256 258 260 251 240 234 221 214 223 232 237 242 238 232 236 226 213 205 255 263 259 285 292 294 307 313 312 301 291 285 287 284 285 300 308 310 311 309 306 299 305